Location: Joplin
(37.0842°N, 94.5131°W)
Time: 23:52:17
(UTC-05:00)

Envisat - Pass Details

Date: 07 October 2021
Orbit: 764 x 766 km, 98.2° (Epoch: 27 October)

Event Time Altitude Azimuth Distance (km) Brightness Sun altitude
Rises 06:32:53 0° 10° (N) 3,236 6.4 -10.0°
Reaches altitude 10° 06:35:12 10° 9° (N) 2,306 5.6 -9.5°
Maximum altitude 06:40:17 77° 285° (WNW) 788 3.0 -8.5°
Drops below altitude 10° 06:45:19 10° 199° (SSW) 2,290 5.3 -7.5°
Sets 06:47:37 0° 198° (SSW) 3,212 6.1 -7.1°
